Regional Weather Roundup
Issued by NWS Kansas City/Pleasant Hill, MO

Home | Current Version | Previous Version | Graphics & Text | Print | Product List | Glossary Off
Versions: 1 2 3 4 5 6 7 8 9 10 11 12 13 14 15 16 17 18 19 20 21 22 23 24 25 26 27

000
ASUS43 KEAX 301010
RWREAX

WEATHER ROUNDUP FOR EASTERN KANSAS AND NORTHWEST MISSOURI
NATIONAL WEATHER SERVICE KANSAS CITY/PLEASANT HILL MO
500 AM CDT SUN APR 30 2017

KSZ040-057-103>105-MOZ028-029-037-043-301100-
...KANSAS CITY METROPOLITAN AREA...

CITY           SKY/WX    TMP DP  RH WIND       PRES   REMARKS
K.C. INTL      LGT RAIN  42  41  96 NE20G29   29.62F FOG     WCI  33
K.C. DOWNTOWN  CLOUDY   N/A N/A N/A NE15G21   29.62F HAZE
LEES SUMMIT    LGT RAIN  44  44 100 NE16      29.63F FOG
OLATHE - IXD   LGT RAIN  43  43 100 NE15      29.61F FOG
OLATHE - OJC   LGT RAIN  43  43 100 NE17G23   29.60F FOG
LAWRENCE       CLOUDY    43  42  97 NE10      29.62F

$$

MOZ001>008-011>017-020>025-030>033-038>040-044>046-053-054-301100-
...NORTHERN AND CENTRAL MISSOURI...

CITY           SKY/WX    TMP DP  RH WIND       PRES   REMARKS
ST. JOSEPH     CLOUDY    42  42 100 NE21G26   29.70F WCI  33
MOSBY          CLOUDY    43  43 100 NE12      29.68F FOG
WHITEMAN AFB   CLOUDY    55  55 100 CALM      29.63R
CLINTON        CLOUDY    57  57 100 E6        29.60F
SEDALIA        CLOUDY    56  56 100 SE17G24   29.62R
WARSAW         NOT AVBL
CHILLICOTHE      N/A     44  43  96 N9G20     29.73F
KIRKSVILLE     CLOUDY    44  18  35 N10       29.74R

$$

MOZ041-047>049-056>058-063>065-088>090-097-301100-
...EASTERN AND SOUTHERN MISSOURI...

CITY           SKY/WX    TMP DP  RH WIND       PRES   REMARKS
ST. LOUIS INTL HVY RAIN  51  49  92 NE3       29.81F FOG
SPIRIT OF STL  LGT RAIN  49  49 100 NE9       29.77F
COLUMBIA       CLOUDY    51  51 100 NE15G28   29.57F FOG
JEFFERSON CITY CLOUDY    54  51  90 SE18G29   29.60F
ROLLA          CLOUDY    61  61 100 SE17G25   29.71F
OSAGE BEACH    RAIN      61  61 100 E8G21     29.65R
SPRINGFIELD    CLOUDY    64  62  93 E10       29.57F
BRANSON        LGT RAIN  63  63 100 SE13      29.61S
JOPLIN         LGT RAIN  65  64  97 SE12      29.52F FOG

$$

IAZ060-094-KSZ022-034>040-054-083-096-NEZ052-066-093-301100-
...KANSAS...SOUTHEAST NEBRASKA AND IOWA...

CITY           SKY/WX    TMP DP  RH WIND       PRES   REMARKS
TOPEKA         CLOUDY    43  43 100 NE18G25   29.62F WCI  35
MANHATTAN      LGT RAIN  41  32  70 NE17G35   29.59F WCI  32
EMPORIA        LGT RAIN  42  42 100 NE25G31   29.51F FOG     WCI  32
CHANUTE        LGT RAIN  56  54  93 NE10      29.49F FOG
WICHITA        LGT RAIN  43  41  93 NE25G36   29.47F FOG     WCI  33
OMAHA          LGT RAIN  40  35  83 NE17G25   29.86F WCI  31
LINCOLN        LGT RAIN  39  38  96 NE22G29   29.83F FOG     WCI  29
FALLS CITY     LGT RAIN  41  39  93 NE12      29.72F FOG     WCI  34
LAMONI         CLOUDY    41  40  96 NE15G23   29.79F FOG     WCI  33
DES MOINES     DRIZZLE   41  39  93 NE13      29.89S WCI  34

$$





USA.gov is the U.S. government's official web portal to all federal, state and local government web resources and services.